Location: Spaichingen
(48.0400°N, 8.4300°E)
Time: 20:43:19
(UTC+02:00)

Tiangong 2 - Visible Passes

Search period start: 19 May 2019 00:00
Search period end: 29 May 2019 00:00
Orbit: 378 x 387 km, 42.8° (Epoch: 19 May)

Date Brightness Start Highest point End Pass type
(mag) Time Alt. Az. Time Alt. Az. Time Alt. Az.
19 May 3.2 22:23:32 10° SSW 22:24:17 13° S 22:24:17 13° S visible
20 May 2.7 22:58:59 10° SW 23:00:27 20° SSW 23:00:27 20° SSW visible
21 May 2.6 21:59:26 10° SSW 22:01:46 19° SSE 22:03:51 11° ESE visible
21 May 3.2 23:35:11 10° WSW 23:36:03 16° SW 23:36:03 16° SW visible
22 May 2.0 22:35:21 10° SW 22:38:06 29° S 22:39:07 23° SE visible
23 May 2.1 23:11:43 10° WSW 23:14:09 29° SSW 23:14:09 29° SSW visible
24 May 2.0 22:11:47 10° WSW 22:14:36 31° S 22:16:52 14° ESE visible
24 May 3.4 23:48:22 10° WSW 23:49:03 14° WSW 23:49:03 14° WSW visible
25 May 2.2 22:48:16 10° WSW 22:50:57 26° S 22:51:39 24° SSE visible
26 May 2.1 21:48:15 10° WSW 21:51:03 30° S 21:53:51 10° ESE visible
26 May 3.2 23:25:10 10° WSW 23:26:22 15° SW 23:26:22 15° SW visible
27 May 2.6 22:24:53 10° WSW 22:27:23 22° SSW 22:28:54 16° SSE visible
28 May 3.4 23:02:22 10° SW 23:03:33 12° SSW 23:03:34 12° SSW visible
